Flag for U.S.A. Weather past 2 weeks in Redmond, Washington, U.S.A.

Now
64 °F

More clouds than sun.


Feels Like: 64 °F
Forecast: 56 / 72 °F
Wind: 7 mph from North

Location: Seattle Boeing Field

Current Time: Jul 24, 2014 at 6:49:51 PM

Latest Report: Jul 24, 2014 at 5:53 PM


Visibility: 10 mi

Pressure: 30.20 "Hg

Humidity: 70%

Dew point: 54 °F

Location of RedmondLocation

Historic Weather in Redmond — Graph

°F

Redmond temperature yesterday

Maximum temperature yesterday: 66 °F (at 12:53 AM)
Minimum temperature yesterday: 60 °F (at 11:53 PM)
Average temperature yesterday: 63 °F

Past Weeks' High & Low Weather Summary

 TemperatureHumidityPressure
High90 °F (Jul 12, 3:53 PM)87% (Jul 23, 7:53 AM)30.20 "Hg (Jul 23, 7:53 AM)
Low57 °F (Jul 18, 5:53 AM)27% (Jul 10, 4:53 PM)29.87 "Hg (Jul 10, 5:53 PM)
Average70 °F60%30.02 "Hg
* Reported Jul 9 5:53 PM — Jul 24 5:53 PM, Redmond, Weather by CustomWeather, © 2014

Note: Actual official high and low records may vary slightly from our data, if they occured in-between our weather recording intervals... More about our weather records

Advertising

Redmond weather history for previous 24 hours

 ConditionsComfort  
Time TempWeatherWind HumidityBarometerVisibility
5:53 PM
Jul 24
64 °FPartly sunny.7 mph70%30.20 "Hg10 mi
4:53 PM64 °FOvercast.8 mph75%30.20 "Hg10 mi
3:53 PM67 °FOvercast.No wind71%30.20 "Hg10 mi
2:53 PM66 °FCloudy.No wind70%30.19 "Hg10 mi
1:53 PM69 °FOvercast.10 mph57%30.19 "Hg10 mi
12:53 PM67 °FMore clouds than sun.8 mph63%30.18 "Hg10 mi
11:53 AM65 °FMore clouds than sun.6 mph68%30.17 "Hg10 mi
10:53 AM63 °FOvercast.6 mph73%30.16 "Hg10 mi
9:53 AM62 °FOvercast.7 mph73%30.14 "Hg10 mi
8:53 AM61 °FMore clouds than sun.8 mph72%30.13 "Hg10 mi
7:53 AM60 °FLight rain. Overcast.5 mph75%30.11 "Hg10 mi
6:53 AM60 °FLight rain. More clouds than sun.6 mph72%30.09 "Hg10 mi
5:53 AM60 °FMostly cloudy.6 mph69%30.09 "Hg10 mi
4:53 AM60 °FPassing clouds.7 mph69%30.07 "Hg10 mi
3:53 AM60 °FMostly cloudy.8 mph69%30.07 "Hg10 mi
2:53 AM59 °FPartly cloudy.8 mph78%30.06 "Hg10 mi
1:53 AM58 °FMostly cloudy.8 mph81%30.06 "Hg10 mi
12:53 AM58 °FMostly cloudy.9 mph84%30.06 "Hg10 mi
11:53 PM
Jul 23
60 °FLight rain. Overcast.8 mph75%30.07 "Hg10 mi
10:53 PM61 °FMostly cloudy.8 mph70%30.06 "Hg10 mi
9:53 PM61 °FPartly sunny.9 mph75%30.07 "Hg10 mi
8:53 PM63 °FMore clouds than sun.9 mph68%30.05 "Hg10 mi
7:53 PM63 °FMore clouds than sun.9 mph78%30.03 "Hg10 mi
6:53 PM62 °FLight rain. Broken clouds.14 mph80%30.03 "Hg10 mi
Weather by CustomWeather, © 2014

See weather overviewHow to use our weather pages